Year,Month,Day,Hour,Minute,Value (Times are PST for temperature in C)
2014,07,08,00,00,17.10
2014,07,08,00,01,17.10
2014,07,08,00,02,17.10
2014,07,08,00,03,17.10
2014,07,08,00,04,17.00
2014,07,08,00,05,17.00
2014,07,08,00,06,17.00
2014,07,08,00,07,17.00
2014,07,08,00,08,17.00
2014,07,08,00,09,17.00
2014,07,08,00,10,16.90
2014,07,08,00,11,16.90
2014,07,08,00,12,16.90
2014,07,08,00,13,16.90
2014,07,08,00,14,16.90
2014,07,08,00,15,16.90
2014,07,08,00,16,16.90
2014,07,08,00,17,16.90
2014,07,08,00,18,16.90
2014,07,08,00,19,16.80
2014,07,08,00,20,16.80
2014,07,08,00,21,16.80
2014,07,08,00,22,16.80
2014,07,08,00,23,16.80
2014,07,08,00,24,16.80
2014,07,08,00,25,16.80
2014,07,08,00,26,16.80
2014,07,08,00,27,16.80
2014,07,08,00,28,16.80
2014,07,08,00,29,16.80
2014,07,08,00,30,16.80
2014,07,08,00,31,16.80
2014,07,08,00,32,16.80
2014,07,08,00,33,16.80
2014,07,08,00,34,16.80
2014,07,08,00,35,16.80
2014,07,08,00,36,16.80
2014,07,08,00,37,16.80
2014,07,08,00,38,16.80
2014,07,08,00,39,16.80
2014,07,08,00,40,16.80
2014,07,08,00,41,16.80
2014,07,08,00,42,16.80
2014,07,08,00,43,16.80
2014,07,08,00,44,16.80
2014,07,08,00,45,16.80
2014,07,08,00,46,16.80
2014,07,08,00,47,16.80
2014,07,08,00,48,16.70
2014,07,08,00,49,16.70
2014,07,08,00,50,16.70
2014,07,08,00,51,16.70
2014,07,08,00,52,16.70
2014,07,08,00,53,16.70
2014,07,08,00,54,16.70
2014,07,08,00,55,16.70
2014,07,08,00,56,16.70
2014,07,08,00,57,16.60
2014,07,08,00,58,16.60
2014,07,08,00,59,16.60
2014,07,08,01,00,16.60
2014,07,08,01,01,16.60
2014,07,08,01,02,16.60
2014,07,08,01,03,16.60
2014,07,08,01,04,16.60
2014,07,08,01,05,16.60
2014,07,08,01,06,16.60
2014,07,08,01,07,16.60
2014,07,08,01,08,16.60
2014,07,08,01,09,16.60
2014,07,08,01,10,16.60
2014,07,08,01,11,16.50
2014,07,08,01,12,16.50
2014,07,08,01,13,16.50
2014,07,08,01,14,16.50
2014,07,08,01,15,16.50
2014,07,08,01,16,16.50
2014,07,08,01,17,16.50
2014,07,08,01,18,16.40
2014,07,08,01,19,16.40
2014,07,08,01,20,16.40
2014,07,08,01,21,16.40
2014,07,08,01,22,16.40
2014,07,08,01,23,16.40
2014,07,08,01,24,16.40
2014,07,08,01,25,16.40
2014,07,08,01,26,16.40
2014,07,08,01,27,16.40
2014,07,08,01,28,16.40
2014,07,08,01,29,16.30
2014,07,08,01,30,16.30
2014,07,08,01,31,16.30
2014,07,08,01,32,16.30
2014,07,08,01,33,16.30
2014,07,08,01,34,16.30
2014,07,08,01,35,16.30
2014,07,08,01,36,16.30
2014,07,08,01,37,16.30
2014,07,08,01,38,16.30
2014,07,08,01,39,16.20
2014,07,08,01,40,16.20
2014,07,08,01,41,16.20
2014,07,08,01,42,16.20
2014,07,08,01,43,16.20
2014,07,08,01,44,16.10
2014,07,08,01,45,16.10
2014,07,08,01,46,16.10
2014,07,08,01,47,16.10
2014,07,08,01,48,16.10
2014,07,08,01,49,16.00
2014,07,08,01,50,16.00
2014,07,08,01,51,16.00
2014,07,08,01,52,16.00
2014,07,08,01,53,16.00
2014,07,08,01,54,16.00
2014,07,08,01,55,16.00
2014,07,08,01,56,15.90
2014,07,08,01,57,15.90
2014,07,08,01,58,15.90
2014,07,08,01,59,15.90
2014,07,08,02,00,15.90
2014,07,08,02,01,15.90
2014,07,08,02,02,15.90
2014,07,08,02,03,15.90
2014,07,08,02,04,15.90
2014,07,08,02,05,15.90
2014,07,08,02,06,15.90
2014,07,08,02,07,15.90
2014,07,08,02,08,15.80
2014,07,08,02,09,15.80
2014,07,08,02,10,15.80
2014,07,08,02,11,15.80
2014,07,08,02,12,15.80
2014,07,08,02,13,15.80
2014,07,08,02,14,15.80
2014,07,08,02,15,15.80
2014,07,08,02,16,15.70
2014,07,08,02,17,15.70
2014,07,08,02,18,15.80
2014,07,08,02,19,15.80
2014,07,08,02,20,15.80
2014,07,08,02,21,15.70
2014,07,08,02,22,15.80
2014,07,08,02,23,15.80
2014,07,08,02,24,15.70
2014,07,08,02,25,15.70
2014,07,08,02,26,15.70
2014,07,08,02,27,15.70
2014,07,08,02,28,15.70
2014,07,08,02,29,15.70
2014,07,08,02,30,15.70
2014,07,08,02,31,15.70
2014,07,08,02,32,15.70
2014,07,08,02,33,15.60
2014,07,08,02,34,15.60
2014,07,08,02,35,15.60
2014,07,08,02,36,15.60
2014,07,08,02,37,15.60
2014,07,08,02,38,15.60
2014,07,08,02,39,15.50
2014,07,08,02,40,15.50
2014,07,08,02,41,15.50
2014,07,08,02,42,15.50
2014,07,08,02,43,15.50
2014,07,08,02,44,15.40
2014,07,08,02,45,15.40
2014,07,08,02,46,15.40
2014,07,08,02,47,15.40
2014,07,08,02,48,15.40
2014,07,08,02,49,15.40
2014,07,08,02,50,15.40
2014,07,08,02,51,15.40
2014,07,08,02,52,15.40
2014,07,08,02,53,15.40
2014,07,08,02,54,15.40
2014,07,08,02,55,15.40
2014,07,08,02,56,15.40
2014,07,08,02,57,15.40
2014,07,08,02,58,15.40
2014,07,08,02,59,15.40
2014,07,08,03,00,15.40
2014,07,08,03,01,15.40
2014,07,08,03,02,15.40
2014,07,08,03,03,15.40
2014,07,08,03,04,15.40
2014,07,08,03,05,15.40
2014,07,08,03,06,15.40
2014,07,08,03,07,15.30
2014,07,08,03,08,15.30
2014,07,08,03,09,15.30
2014,07,08,03,10,15.30
2014,07,08,03,11,15.30
2014,07,08,03,12,15.30
2014,07,08,03,13,15.30
2014,07,08,03,14,15.30
2014,07,08,03,15,15.30
2014,07,08,03,16,15.30
2014,07,08,03,17,15.20
2014,07,08,03,18,15.20
2014,07,08,03,19,15.20
2014,07,08,03,20,15.20
2014,07,08,03,21,15.20
2014,07,08,03,22,15.10
2014,07,08,03,23,15.10
2014,07,08,03,24,15.10
2014,07,08,03,25,15.10
2014,07,08,03,26,15.10
2014,07,08,03,27,15.10
2014,07,08,03,28,15.10
2014,07,08,03,29,15.00
2014,07,08,03,30,15.00
2014,07,08,03,31,15.00
2014,07,08,03,32,15.00
2014,07,08,03,33,14.90
2014,07,08,03,34,14.90
2014,07,08,03,35,14.90
2014,07,08,03,36,14.90
2014,07,08,03,37,14.90
2014,07,08,03,38,14.90
2014,07,08,03,39,14.90
2014,07,08,03,40,14.90
2014,07,08,03,41,14.90
2014,07,08,03,42,14.90
2014,07,08,03,43,14.90
2014,07,08,03,44,14.90
2014,07,08,03,45,14.90
2014,07,08,03,46,14.80
2014,07,08,03,47,14.80
2014,07,08,03,48,14.80
2014,07,08,03,49,14.80
2014,07,08,03,50,14.80
2014,07,08,03,51,14.80
2014,07,08,03,52,14.80
2014,07,08,03,53,14.80
2014,07,08,03,54,14.80
2014,07,08,03,55,14.80
2014,07,08,03,56,14.80
2014,07,08,03,57,14.80
2014,07,08,03,58,14.80
2014,07,08,03,59,14.80
2014,07,08,04,00,14.80
2014,07,08,04,01,14.80
2014,07,08,04,02,14.80
2014,07,08,04,03,14.80
2014,07,08,04,04,14.70
2014,07,08,04,05,14.70
2014,07,08,04,06,14.70
2014,07,08,04,07,14.70
2014,07,08,04,08,14.70
2014,07,08,04,09,14.70
2014,07,08,04,10,14.70
2014,07,08,04,11,14.70
2014,07,08,04,12,14.70
2014,07,08,04,13,14.70
2014,07,08,04,14,14.70
2014,07,08,04,15,14.70
2014,07,08,04,16,14.70
2014,07,08,04,17,14.60
2014,07,08,04,18,14.60
2014,07,08,04,19,14.60
2014,07,08,04,20,14.60
2014,07,08,04,21,14.60
2014,07,08,04,22,14.60
2014,07,08,04,23,14.50
2014,07,08,04,24,14.50
2014,07,08,04,25,14.50
2014,07,08,04,26,14.50
2014,07,08,04,27,14.40
2014,07,08,04,28,14.40
2014,07,08,04,29,14.40
2014,07,08,04,30,14.40
2014,07,08,04,31,14.40
2014,07,08,04,32,14.40
2014,07,08,04,33,14.40
2014,07,08,04,34,14.40
2014,07,08,04,35,14.40
2014,07,08,04,36,14.40
2014,07,08,04,37,14.40
2014,07,08,04,38,14.30
2014,07,08,04,39,14.30
2014,07,08,04,40,14.30
2014,07,08,04,41,14.30
2014,07,08,04,42,14.30
2014,07,08,04,43,14.30
2014,07,08,04,44,14.30
2014,07,08,04,45,14.30
2014,07,08,04,46,14.30
2014,07,08,04,47,14.30
2014,07,08,04,48,14.30
2014,07,08,04,49,14.30
2014,07,08,04,50,14.30
2014,07,08,04,51,14.30
2014,07,08,04,52,14.20
2014,07,08,04,53,14.20
2014,07,08,04,54,14.20
2014,07,08,04,55,14.20
2014,07,08,04,56,14.20
2014,07,08,04,57,14.20
2014,07,08,04,58,14.20
2014,07,08,04,59,14.20
2014,07,08,05,00,14.20
2014,07,08,05,01,14.20
2014,07,08,05,02,14.20
2014,07,08,05,03,14.20
2014,07,08,05,04,14.20
2014,07,08,05,05,14.20
2014,07,08,05,06,14.20
2014,07,08,05,07,14.20
2014,07,08,05,08,14.20
2014,07,08,05,09,14.20
2014,07,08,05,10,14.10
2014,07,08,05,11,14.10
2014,07,08,05,12,14.10
2014,07,08,05,13,14.10
2014,07,08,05,14,14.10
2014,07,08,05,15,14.10
2014,07,08,05,16,14.10
2014,07,08,05,17,14.10
2014,07,08,05,18,14.10
2014,07,08,05,19,14.10
2014,07,08,05,20,14.10
2014,07,08,05,21,14.10
2014,07,08,05,22,14.10
2014,07,08,05,23,14.10
2014,07,08,05,24,14.10
2014,07,08,05,25,14.10
2014,07,08,05,26,14.10
2014,07,08,05,27,14.10
2014,07,08,05,28,14.10
2014,07,08,05,29,14.10
2014,07,08,05,30,14.10
2014,07,08,05,31,14.10
2014,07,08,05,32,14.10
2014,07,08,05,33,14.10
2014,07,08,05,34,14.10
2014,07,08,05,35,14.10
2014,07,08,05,36,14.10
2014,07,08,05,37,14.10
2014,07,08,05,38,14.10
2014,07,08,05,39,14.10
2014,07,08,05,40,14.10
2014,07,08,05,41,14.10
2014,07,08,05,42,14.10
2014,07,08,05,43,14.10
2014,07,08,05,44,14.10
2014,07,08,05,45,14.10
2014,07,08,05,46,14.10
2014,07,08,05,47,14.10
2014,07,08,05,48,14.10
2014,07,08,05,49,14.10
2014,07,08,05,50,14.10
2014,07,08,05,51,14.10
2014,07,08,05,52,14.10
2014,07,08,05,53,14.10
2014,07,08,05,54,14.10
2014,07,08,05,55,14.10
2014,07,08,05,56,14.20
2014,07,08,05,57,14.20
2014,07,08,05,58,14.20
2014,07,08,05,59,14.20
2014,07,08,06,00,14.20
2014,07,08,06,01,14.30
2014,07,08,06,02,14.30
2014,07,08,06,03,14.30
2014,07,08,06,04,14.30
2014,07,08,06,05,14.40
2014,07,08,06,06,14.40
2014,07,08,06,07,14.40
2014,07,08,06,08,14.50
2014,07,08,06,09,14.50
2014,07,08,06,10,14.60
2014,07,08,06,11,14.60
2014,07,08,06,12,14.60
2014,07,08,06,13,14.70
2014,07,08,06,14,14.70
2014,07,08,06,15,14.70
2014,07,08,06,16,14.80
2014,07,08,06,17,14.80
2014,07,08,06,18,14.90
2014,07,08,06,19,14.90
2014,07,08,06,20,14.90
2014,07,08,06,21,15.00
2014,07,08,06,22,15.00
2014,07,08,06,23,15.10
2014,07,08,06,24,15.20
2014,07,08,06,25,15.20
2014,07,08,06,26,15.30
2014,07,08,06,27,15.40
2014,07,08,06,28,15.50
2014,07,08,06,29,15.60
2014,07,08,06,30,15.70
2014,07,08,06,31,15.70
2014,07,08,06,32,15.80
2014,07,08,06,33,15.90
2014,07,08,06,34,15.90
2014,07,08,06,35,16.00
2014,07,08,06,36,16.00
2014,07,08,06,37,16.10
2014,07,08,06,38,16.10
2014,07,08,06,39,16.10
2014,07,08,06,40,16.10
2014,07,08,06,41,16.20
2014,07,08,06,42,16.30
2014,07,08,06,43,16.30
2014,07,08,06,44,16.40
2014,07,08,06,45,16.50
2014,07,08,06,46,16.60
2014,07,08,06,47,16.60
2014,07,08,06,48,16.70
2014,07,08,06,49,16.80
2014,07,08,06,50,16.80
2014,07,08,06,51,16.90
2014,07,08,06,52,17.00
2014,07,08,06,53,17.10
2014,07,08,06,54,17.10
2014,07,08,06,55,17.20
2014,07,08,06,56,17.40
2014,07,08,06,57,17.50
2014,07,08,06,58,17.60
2014,07,08,06,59,17.70
2014,07,08,07,00,17.80
2014,07,08,07,01,17.90
2014,07,08,07,02,18.10
2014,07,08,07,03,18.20
2014,07,08,07,04,18.30
2014,07,08,07,05,18.40
2014,07,08,07,06,18.50
2014,07,08,07,07,18.60
2014,07,08,07,08,18.70
2014,07,08,07,09,18.80
2014,07,08,07,10,18.90
2014,07,08,07,11,18.90
2014,07,08,07,12,18.90
2014,07,08,07,13,19.00
2014,07,08,07,14,19.00
2014,07,08,07,15,19.10
2014,07,08,07,16,19.10
2014,07,08,07,17,19.10
2014,07,08,07,18,19.20
2014,07,08,07,19,19.20
2014,07,08,07,20,19.30
2014,07,08,07,21,19.30
2014,07,08,07,22,19.30
2014,07,08,07,23,19.30
2014,07,08,07,24,19.30
2014,07,08,07,25,19.30
2014,07,08,07,26,19.30
2014,07,08,07,27,19.40
2014,07,08,07,28,19.40
2014,07,08,07,29,19.40
2014,07,08,07,30,19.50
2014,07,08,07,31,19.50
2014,07,08,07,32,19.50
2014,07,08,07,33,19.50
2014,07,08,07,34,19.40
2014,07,08,07,35,19.40
2014,07,08,07,36,19.50
2014,07,08,07,37,19.50
2014,07,08,07,38,19.50
2014,07,08,07,39,19.50
2014,07,08,07,40,19.50
2014,07,08,07,41,19.50
2014,07,08,07,42,19.60
2014,07,08,07,43,19.60
2014,07,08,07,44,19.60
2014,07,08,07,45,19.70
2014,07,08,07,46,19.80
2014,07,08,07,47,19.80
2014,07,08,07,48,19.90
2014,07,08,07,49,19.90
2014,07,08,07,50,20.00
2014,07,08,07,51,20.10
2014,07,08,07,52,20.10
2014,07,08,07,53,20.20
2014,07,08,07,54,20.20
2014,07,08,07,55,20.20
2014,07,08,07,56,20.20
2014,07,08,07,57,20.20
2014,07,08,07,58,20.20
2014,07,08,07,59,20.30
2014,07,08,08,00,20.30
2014,07,08,08,01,20.30
2014,07,08,08,02,20.30
2014,07,08,08,03,20.30
2014,07,08,08,04,20.30
2014,07,08,08,05,20.40
2014,07,08,08,06,20.40
2014,07,08,08,07,20.50
2014,07,08,08,08,20.50
2014,07,08,08,09,20.60
2014,07,08,08,10,20.60
2014,07,08,08,11,20.70
2014,07,08,08,12,20.70
2014,07,08,08,13,20.70
2014,07,08,08,14,20.80
2014,07,08,08,15,20.80
2014,07,08,08,16,20.80
2014,07,08,08,17,20.80
2014,07,08,08,18,20.80
2014,07,08,08,19,20.80
2014,07,08,08,20,20.80
2014,07,08,08,21,20.80
2014,07,08,08,22,20.80
2014,07,08,08,23,20.80
2014,07,08,08,24,20.80
2014,07,08,08,25,20.80
2014,07,08,08,26,20.80
2014,07,08,08,27,20.80
2014,07,08,08,28,20.90
2014,07,08,08,29,20.90
2014,07,08,08,30,21.00
2014,07,08,08,31,21.10
2014,07,08,08,32,21.10
2014,07,08,08,33,21.20
2014,07,08,08,34,21.30
2014,07,08,08,35,21.30
2014,07,08,08,36,21.30
2014,07,08,08,37,21.30
2014,07,08,08,38,21.30
2014,07,08,08,39,21.30
2014,07,08,08,40,21.30
2014,07,08,08,41,21.30
2014,07,08,08,42,21.30
2014,07,08,08,43,21.40
2014,07,08,08,44,21.40
2014,07,08,08,45,21.40
2014,07,08,08,46,21.40
2014,07,08,08,47,21.40
2014,07,08,08,48,21.50
2014,07,08,08,49,21.60
2014,07,08,08,50,21.60
2014,07,08,08,51,21.60
2014,07,08,08,52,21.60
2014,07,08,08,53,21.60
2014,07,08,08,54,21.60
2014,07,08,08,55,21.50
2014,07,08,08,56,21.50
2014,07,08,08,57,21.40
2014,07,08,08,58,21.30
2014,07,08,08,59,21.20
2014,07,08,09,00,21.10
2014,07,08,09,01,21.10
2014,07,08,09,02,21.10
2014,07,08,09,03,21.10
2014,07,08,09,04,21.20
2014,07,08,09,05,21.20
2014,07,08,09,06,21.30
2014,07,08,09,07,21.30
2014,07,08,09,08,21.30
2014,07,08,09,09,21.40
2014,07,08,09,10,21.40
2014,07,08,09,11,21.40
2014,07,08,09,12,21.40
2014,07,08,09,13,21.40
2014,07,08,09,14,21.50
2014,07,08,09,15,21.50
2014,07,08,09,16,21.60
2014,07,08,09,17,21.60
2014,07,08,09,18,21.60
2014,07,08,09,19,21.60
2014,07,08,09,20,21.70
2014,07,08,09,21,21.70
2014,07,08,09,22,21.70
2014,07,08,09,23,21.70
2014,07,08,09,24,21.70
2014,07,08,09,25,21.80
2014,07,08,09,26,21.80
2014,07,08,09,27,21.70
2014,07,08,09,28,21.70
2014,07,08,09,29,21.70
2014,07,08,09,30,21.70
2014,07,08,09,31,21.70
2014,07,08,09,32,21.70
2014,07,08,09,33,21.70
2014,07,08,09,34,21.70
2014,07,08,09,35,21.70
2014,07,08,09,36,21.70
2014,07,08,09,37,21.80
2014,07,08,09,38,21.80
2014,07,08,09,39,21.80
2014,07,08,09,40,21.90
2014,07,08,09,41,21.90
2014,07,08,09,42,22.00
2014,07,08,09,43,22.10
2014,07,08,09,44,22.20
2014,07,08,09,45,22.20
2014,07,08,09,46,22.20
2014,07,08,09,47,22.20
2014,07,08,09,48,22.20
2014,07,08,09,49,22.20
2014,07,08,09,50,22.20
2014,07,08,09,51,22.30
2014,07,08,09,52,22.30
2014,07,08,09,53,22.30
2014,07,08,09,54,22.30
2014,07,08,09,55,22.20
2014,07,08,09,56,22.10
2014,07,08,09,57,22.00
2014,07,08,09,58,21.90
2014,07,08,09,59,21.90
2014,07,08,10,00,21.90
2014,07,08,10,01,21.80
2014,07,08,10,02,21.80
2014,07,08,10,03,21.80
2014,07,08,10,04,21.80
2014,07,08,10,05,21.80
2014,07,08,10,06,21.80
2014,07,08,10,07,21.80
2014,07,08,10,08,21.80
2014,07,08,10,09,21.90
2014,07,08,10,10,21.90
2014,07,08,10,11,22.10
2014,07,08,10,12,22.10
2014,07,08,10,13,22.10
2014,07,08,10,14,22.00
2014,07,08,10,15,21.90
2014,07,08,10,16,21.80
2014,07,08,10,17,21.80
2014,07,08,10,18,21.80
2014,07,08,10,19,21.80
2014,07,08,10,20,21.70
2014,07,08,10,21,21.70
2014,07,08,10,22,21.70
2014,07,08,10,23,21.70
2014,07,08,10,24,21.80
2014,07,08,10,25,21.80
2014,07,08,10,26,21.80
2014,07,08,10,27,21.80
2014,07,08,10,28,21.80
2014,07,08,10,29,21.80
2014,07,08,10,30,21.80
2014,07,08,10,31,21.80
2014,07,08,10,32,21.80
2014,07,08,10,33,21.70
2014,07,08,10,34,21.60
2014,07,08,10,35,21.50
2014,07,08,10,36,21.50
2014,07,08,10,37,21.40
2014,07,08,10,38,21.40
2014,07,08,10,39,21.40
2014,07,08,10,40,21.50
2014,07,08,10,41,21.60
2014,07,08,10,42,21.60
2014,07,08,10,43,21.50
2014,07,08,10,44,21.50
2014,07,08,10,45,21.50
2014,07,08,10,46,21.60
2014,07,08,10,47,21.60
2014,07,08,10,48,21.60
2014,07,08,10,49,21.50
2014,07,08,10,50,21.40
2014,07,08,10,51,21.30
2014,07,08,10,52,21.20
2014,07,08,10,53,21.10
2014,07,08,10,54,21.10
2014,07,08,10,55,21.00
2014,07,08,10,56,21.00
2014,07,08,10,57,21.00
2014,07,08,10,58,21.00
2014,07,08,10,59,21.00
2014,07,08,11,00,20.90
2014,07,08,11,01,20.90
2014,07,08,11,02,20.90
2014,07,08,11,03,20.90
2014,07,08,11,04,20.80
2014,07,08,11,05,20.80
2014,07,08,11,06,20.80
2014,07,08,11,07,20.80
2014,07,08,11,08,20.90
2014,07,08,11,09,21.00
2014,07,08,11,10,21.10
2014,07,08,11,11,21.20
2014,07,08,11,12,21.20
2014,07,08,11,13,21.20
2014,07,08,11,14,21.20
2014,07,08,11,15,21.20
2014,07,08,11,16,21.20
2014,07,08,11,17,21.30
2014,07,08,11,18,21.30
2014,07,08,11,19,21.30
2014,07,08,11,20,21.40
2014,07,08,11,21,21.40
2014,07,08,11,22,21.40
2014,07,08,11,23,21.40
2014,07,08,11,24,21.40
2014,07,08,11,25,21.40
2014,07,08,11,26,21.50
2014,07,08,11,27,21.50
2014,07,08,11,28,21.50
2014,07,08,11,29,21.40
2014,07,08,11,30,21.40
2014,07,08,11,31,21.30
2014,07,08,11,32,21.30
2014,07,08,11,33,21.30
2014,07,08,11,34,21.40
2014,07,08,11,35,21.40
2014,07,08,11,36,21.40
2014,07,08,11,37,21.40
2014,07,08,11,38,21.40
2014,07,08,11,39,21.50
2014,07,08,11,40,21.50
2014,07,08,11,41,21.50
2014,07,08,11,42,21.50
2014,07,08,11,43,21.50
2014,07,08,11,44,21.60
2014,07,08,11,45,21.60
2014,07,08,11,46,21.70
2014,07,08,11,47,21.60
2014,07,08,11,48,21.70
2014,07,08,11,49,21.70
2014,07,08,11,50,21.80
2014,07,08,11,51,21.80
2014,07,08,11,52,21.80
2014,07,08,11,53,21.80
2014,07,08,11,54,21.80
2014,07,08,11,55,21.80
2014,07,08,11,56,21.80
2014,07,08,11,57,21.90
2014,07,08,11,58,22.00
2014,07,08,11,59,22.00
2014,07,08,12,00,22.00
2014,07,08,12,01,21.90
2014,07,08,12,02,21.90
2014,07,08,12,03,22.00
2014,07,08,12,04,22.00
2014,07,08,12,05,22.10
2014,07,08,12,06,22.10
2014,07,08,12,07,22.20
2014,07,08,12,08,22.20
2014,07,08,12,09,22.20
2014,07,08,12,10,22.20
2014,07,08,12,11,22.10
2014,07,08,12,12,22.00
2014,07,08,12,13,21.90
2014,07,08,12,14,21.90
2014,07,08,12,15,21.80
2014,07,08,12,16,21.70
2014,07,08,12,17,21.60
2014,07,08,12,18,21.50
2014,07,08,12,19,21.40
2014,07,08,12,20,21.30
2014,07,08,12,21,21.10
2014,07,08,12,22,20.90
2014,07,08,12,23,20.80
2014,07,08,12,24,20.80
2014,07,08,12,25,20.80
2014,07,08,12,26,20.80
2014,07,08,12,27,20.80
2014,07,08,12,28,20.80
2014,07,08,12,29,20.80
2014,07,08,12,30,20.80
2014,07,08,12,31,20.80
2014,07,08,12,32,20.90
2014,07,08,12,33,20.90
2014,07,08,12,34,20.90
2014,07,08,12,35,20.90
2014,07,08,12,36,21.00
2014,07,08,12,37,21.00
2014,07,08,12,38,21.10
2014,07,08,12,39,21.00
2014,07,08,12,40,21.10
2014,07,08,12,41,21.10
2014,07,08,12,42,21.20
2014,07,08,12,43,21.30
2014,07,08,12,44,21.30
2014,07,08,12,45,21.40
2014,07,08,12,46,21.40
2014,07,08,12,47,21.50
2014,07,08,12,48,21.50
2014,07,08,12,49,21.50
2014,07,08,12,50,21.60
2014,07,08,12,51,21.60
2014,07,08,12,52,21.60
2014,07,08,12,53,21.70
2014,07,08,12,54,21.60
2014,07,08,12,55,21.50
2014,07,08,12,56,21.40
2014,07,08,12,57,21.30
2014,07,08,12,58,21.20
2014,07,08,12,59,21.30
2014,07,08,13,00,21.30
2014,07,08,13,01,21.50
2014,07,08,13,02,21.50
2014,07,08,13,03,21.60
2014,07,08,13,04,21.70
2014,07,08,13,05,21.80
2014,07,08,13,06,21.80
2014,07,08,13,07,21.90
2014,07,08,13,08,21.90
2014,07,08,13,09,21.90
2014,07,08,13,10,21.80
2014,07,08,13,11,21.80
2014,07,08,13,12,21.80
2014,07,08,13,13,21.80
2014,07,08,13,14,21.90
2014,07,08,13,15,21.90
2014,07,08,13,16,22.00
2014,07,08,13,17,22.10
2014,07,08,13,18,22.20
2014,07,08,13,19,22.30
2014,07,08,13,20,22.20
2014,07,08,13,21,22.20
2014,07,08,13,22,22.10
2014,07,08,13,23,22.10
2014,07,08,13,24,22.10
2014,07,08,13,25,22.20
2014,07,08,13,26,22.30
2014,07,08,13,27,22.30
2014,07,08,13,28,22.30
2014,07,08,13,29,22.20
2014,07,08,13,30,22.20
2014,07,08,13,31,22.30
2014,07,08,13,32,22.30
2014,07,08,13,33,22.40
2014,07,08,13,34,22.40
2014,07,08,13,35,22.30
2014,07,08,13,36,22.30
2014,07,08,13,37,22.20
2014,07,08,13,38,22.20
2014,07,08,13,39,22.20
2014,07,08,13,40,22.20
2014,07,08,13,41,22.20
2014,07,08,13,42,22.20
2014,07,08,13,43,22.20
2014,07,08,13,44,22.20
2014,07,08,13,45,22.30
2014,07,08,13,46,22.30
2014,07,08,13,47,22.30
2014,07,08,13,48,22.30
2014,07,08,13,49,22.30
2014,07,08,13,50,22.30
2014,07,08,13,51,22.40
2014,07,08,13,52,22.40
2014,07,08,13,53,22.40
2014,07,08,13,54,22.50
2014,07,08,13,55,22.60
2014,07,08,13,56,22.60
2014,07,08,13,57,22.60
2014,07,08,13,58,22.60
2014,07,08,13,59,22.60
2014,07,08,14,00,22.60
2014,07,08,14,01,22.60
2014,07,08,14,02,22.60
2014,07,08,14,03,22.80
2014,07,08,14,04,22.90
2014,07,08,14,05,23.00
2014,07,08,14,06,23.10
2014,07,08,14,07,23.20
2014,07,08,14,08,23.30
2014,07,08,14,09,23.30
2014,07,08,14,10,23.40
2014,07,08,14,11,23.40
2014,07,08,14,12,23.50
2014,07,08,14,13,23.50
2014,07,08,14,14,23.50
2014,07,08,14,15,23.50
2014,07,08,14,16,23.50
2014,07,08,14,17,23.50
2014,07,08,14,18,23.50
2014,07,08,14,19,23.60
2014,07,08,14,20,23.60
2014,07,08,14,21,23.60
2014,07,08,14,22,23.60
2014,07,08,14,23,23.70
2014,07,08,14,24,23.70
2014,07,08,14,25,23.70
2014,07,08,14,26,23.70
2014,07,08,14,27,23.70
2014,07,08,14,28,23.70
2014,07,08,14,29,23.70
2014,07,08,14,30,23.70
2014,07,08,14,31,23.70
2014,07,08,14,32,23.70
2014,07,08,14,33,23.80
2014,07,08,14,34,23.80
2014,07,08,14,35,23.90
2014,07,08,14,36,23.90
2014,07,08,14,37,23.90
2014,07,08,14,38,23.80
2014,07,08,14,39,23.80
2014,07,08,14,40,23.90
2014,07,08,14,41,23.90
2014,07,08,14,42,23.90
2014,07,08,14,43,23.80
2014,07,08,14,44,23.80
2014,07,08,14,45,23.80
2014,07,08,14,46,23.80
2014,07,08,14,47,23.90
2014,07,08,14,48,23.90
2014,07,08,14,49,24.00
2014,07,08,14,50,24.00
2014,07,08,14,51,24.10
2014,07,08,14,52,24.20
2014,07,08,14,53,24.30
2014,07,08,14,54,24.30
2014,07,08,14,55,24.30
2014,07,08,14,56,24.20
2014,07,08,14,57,24.20
2014,07,08,14,58,24.10
2014,07,08,14,59,24.10
2014,07,08,15,00,24.10
2014,07,08,15,01,24.10
2014,07,08,15,02,24.20
2014,07,08,15,03,24.10
2014,07,08,15,04,24.10
2014,07,08,15,05,24.10
2014,07,08,15,06,24.10
2014,07,08,15,07,24.10
2014,07,08,15,08,24.10
2014,07,08,15,09,24.10
2014,07,08,15,10,24.10
2014,07,08,15,11,24.10
2014,07,08,15,12,24.10
2014,07,08,15,13,24.20
2014,07,08,15,14,24.20
2014,07,08,15,15,24.20
2014,07,08,15,16,24.20
2014,07,08,15,17,24.20
2014,07,08,15,18,24.20
2014,07,08,15,19,24.10
2014,07,08,15,20,24.20
2014,07,08,15,21,24.20
2014,07,08,15,22,24.20
2014,07,08,15,23,24.30
2014,07,08,15,24,24.40
2014,07,08,15,25,24.40
2014,07,08,15,26,24.40
2014,07,08,15,27,24.40
2014,07,08,15,28,24.40
2014,07,08,15,29,24.40
2014,07,08,15,30,24.40
2014,07,08,15,31,24.40
2014,07,08,15,32,24.30
2014,07,08,15,33,24.30
2014,07,08,15,34,24.30
2014,07,08,15,35,24.40
2014,07,08,15,36,24.40
2014,07,08,15,37,24.30
2014,07,08,15,38,24.40
2014,07,08,15,39,24.40
2014,07,08,15,40,24.40
2014,07,08,15,41,24.40
2014,07,08,15,42,24.40
2014,07,08,15,43,24.40
2014,07,08,15,44,24.40
2014,07,08,15,45,24.40
2014,07,08,15,46,24.40
2014,07,08,15,47,24.50
2014,07,08,15,48,24.50
2014,07,08,15,49,24.50
2014,07,08,15,50,24.40
2014,07,08,15,51,24.40
2014,07,08,15,52,24.40
2014,07,08,15,53,24.40
2014,07,08,15,54,24.50
2014,07,08,15,55,24.50
2014,07,08,15,56,24.50
2014,07,08,15,57,24.50
2014,07,08,15,58,24.40
2014,07,08,15,59,24.30
2014,07,08,16,00,24.10
2014,07,08,16,01,23.90
2014,07,08,16,02,23.80
2014,07,08,16,03,23.60
2014,07,08,16,04,23.50
2014,07,08,16,05,23.40
2014,07,08,16,06,23.30
2014,07,08,16,07,23.20
2014,07,08,16,08,23.10
2014,07,08,16,09,23.00
2014,07,08,16,10,22.90
2014,07,08,16,11,22.80
2014,07,08,16,12,22.70
2014,07,08,16,13,22.70
2014,07,08,16,14,22.60
2014,07,08,16,15,22.50
2014,07,08,16,16,22.50
2014,07,08,16,17,22.40
2014,07,08,16,18,22.30
2014,07,08,16,19,22.30
2014,07,08,16,20,22.20
2014,07,08,16,21,22.10
2014,07,08,16,22,22.00
2014,07,08,16,23,21.90
2014,07,08,16,24,21.80
2014,07,08,16,25,21.70
2014,07,08,16,26,21.60
2014,07,08,16,27,21.60
2014,07,08,16,28,21.60
2014,07,08,16,29,21.60
2014,07,08,16,30,21.60
2014,07,08,16,31,21.60
2014,07,08,16,32,21.70
2014,07,08,16,33,21.60
2014,07,08,16,34,21.60
2014,07,08,16,35,21.60
2014,07,08,16,36,21.60
2014,07,08,16,37,21.50
2014,07,08,16,38,21.50
2014,07,08,16,39,21.50
2014,07,08,16,40,21.40
2014,07,08,16,41,21.40
2014,07,08,16,42,21.30
2014,07,08,16,43,21.30
2014,07,08,16,44,21.30
2014,07,08,16,45,21.40
2014,07,08,16,46,21.40
2014,07,08,16,47,21.30
2014,07,08,16,48,21.30
2014,07,08,16,49,21.30
2014,07,08,16,50,21.20
2014,07,08,16,51,21.20
2014,07,08,16,52,21.10
2014,07,08,16,53,21.10
2014,07,08,16,54,21.10
2014,07,08,16,55,21.20
2014,07,08,16,56,21.20
2014,07,08,16,57,21.20
2014,07,08,16,58,21.30
2014,07,08,16,59,21.30
2014,07,08,17,00,21.30
2014,07,08,17,01,21.30
2014,07,08,17,02,21.40
2014,07,08,17,03,21.40
2014,07,08,17,04,21.50
2014,07,08,17,05,21.50
2014,07,08,17,06,21.50
2014,07,08,17,07,21.50
2014,07,08,17,08,21.60
2014,07,08,17,09,21.60
2014,07,08,17,10,21.60
2014,07,08,17,11,21.70
2014,07,08,17,12,21.70
2014,07,08,17,13,21.70
2014,07,08,17,14,21.70
2014,07,08,17,15,21.80
2014,07,08,17,16,21.80
2014,07,08,17,17,21.80
2014,07,08,17,18,21.80
2014,07,08,17,19,21.80